GLET19 YSNW-YSNW

Flight info

Callsign GLET19
Flight time 0h 6m
Altitude 2499
Route NWR DCT NWR
Aircraft H60/M-SDFHITUY/C

Departure

Time 2026-04-16 11:18
Airport Naval Air Station Nowra - HMAS Albatross (YSNW)

Arrival

Time 2026-04-16 11:24
Airport Naval Air Station Nowra - HMAS Albatross (YSNW)
Time Latitude Longitude Altitude Speed Heading
2026-04-16 11:08 -34.94448 150.53519 355 ft 0 kts 36°
2026-04-16 11:10 -34.94447 150.53520 355 ft 1 kts 39°
2026-04-16 11:10 -34.94444 150.53523 355 ft 0 kts 42°
2026-04-16 11:10 -34.94443 150.53525 355 ft 0 kts 44°
2026-04-16 11:11 -34.94437 150.53532 354 ft 1 kts 72°
2026-04-16 11:11 -34.94443 150.53551 354 ft 3 kts 148°
2026-04-16 11:11 -34.94462 150.53538 355 ft 3 kts 225°
2026-04-16 11:11 -34.94476 150.53522 355 ft 2 kts 224°
2026-04-16 11:12 -34.94484 150.53510 355 ft 1 kts 225°
2026-04-16 11:12 -34.94493 150.53499 356 ft 2 kts 228°
2026-04-16 11:12 -34.94501 150.53487 356 ft 1 kts 227°
2026-04-16 11:12 -34.94509 150.53476 357 ft 2 kts 226°
2026-04-16 11:13 -34.94523 150.53459 358 ft 3 kts 221°
2026-04-16 11:13 -34.94547 150.53433 359 ft 5 kts 223°
2026-04-16 11:13 -34.94577 150.53406 360 ft 6 kts 196°
2026-04-16 11:13 -34.94620 150.53403 361 ft 5 kts 182°
2026-04-16 11:14 -34.94653 150.53400 363 ft 3 kts 185°
2026-04-16 11:14 -34.94677 150.53398 364 ft 2 kts 184°
2026-04-16 11:14 -34.94694 150.53397 365 ft 2 kts 185°
2026-04-16 11:14 -34.94714 150.53395 365 ft 3 kts 183°
2026-04-16 11:15 -34.94734 150.53392 366 ft 2 kts 184°
2026-04-16 11:15 -34.94753 150.53400 366 ft 3 kts 96°
2026-04-16 11:15 -34.94756 150.53432 366 ft 3 kts 92°
2026-04-16 11:15 -34.94756 150.53444 365 ft 0 kts 75°
2026-04-16 11:16 -34.94758 150.53455 372 ft 3 kts 99°
2026-04-16 11:16 -34.94759 150.53468 404 ft 3 kts 331°
2026-04-16 11:16 -34.94767 150.53447 393 ft 9 kts 158°
2026-04-16 11:16 -34.94808 150.53589 437 ft 40 kts 90°
2026-04-16 11:17 -34.94877 150.54163 546 ft 91 kts 94°
2026-04-16 11:17 -34.94964 150.55026 686 ft 113 kts 89°
2026-04-16 11:17 -34.95124 150.56059 712 ft 134 kts 94°
2026-04-16 11:17 -34.95305 150.57199 728 ft 138 kts 87°
2026-04-16 11:18 -34.95342 150.58331 858 ft 130 kts 83°
2026-04-16 11:18 -34.95399 150.59465 951 ft 131 kts 78°
2026-04-16 11:18 -34.95032 150.60332 1117 ft 118 kts 27°
2026-04-16 11:18 -34.94252 150.60788 1100 ft 125 kts
2026-04-16 11:19 -34.93418 150.61133 1153 ft 129 kts
2026-04-16 11:19 -34.92549 150.61476 1167 ft 133 kts
2026-04-16 11:19 -34.91665 150.61815 1206 ft 133 kts
2026-04-16 11:19 -34.90772 150.62146 1215 ft 136 kts
2026-04-16 11:20 -34.89847 150.62494 1194 ft 140 kts
2026-04-16 11:20 -34.88916 150.62859 1197 ft 139 kts
2026-04-16 11:20 -34.88006 150.63246 1276 ft 136 kts
2026-04-16 11:20 -34.87130 150.63596 1463 ft 119 kts
2026-04-16 11:21 -34.86330 150.63849 1537 ft 128 kts
2026-04-16 11:21 -34.85431 150.64180 1422 ft 142 kts
2026-04-16 11:21 -34.84451 150.64508 1228 ft 151 kts
2026-04-16 11:21 -34.83330 150.64798 393 ft 169 kts
2026-04-16 11:22 -34.82263 150.64960 430 ft 142 kts 360°
2026-04-16 11:22 -34.81321 150.65141 486 ft 132 kts 354°
2026-04-16 11:22 -34.80432 150.65282 645 ft 126 kts 10°
2026-04-16 11:22 -34.79825 150.66086 756 ft 138 kts 58°
2026-04-16 11:23 -34.79882 150.67247 781 ft 150 kts 121°
2026-04-16 11:23 -34.80761 150.67822 741 ft 142 kts 186°
2026-04-16 11:23 -34.81547 150.67313 694 ft 128 kts 242°
2026-04-16 11:23 -34.81656 150.66289 543 ft 123 kts 289°
2026-04-16 11:24 -34.81025 150.65785 513 ft 129 kts 11°
2026-04-16 11:24 -34.81031 150.66717 297 ft 137 kts 159°
2026-04-16 11:24 -34.81565 150.66379 374 ft 55 kts 273°
2026-04-16 11:24 -34.81502 150.66113 414 ft 20 kts 306°
2026-04-16 11:25 -34.81449 150.65987 388 ft 24 kts 305°
2026-04-16 11:25 -34.81387 150.65712 475 ft 48 kts 277°
2026-04-16 11:25 -34.81633 150.65242 507 ft 86 kts 228°
2026-04-16 11:25 -34.82301 150.64911 467 ft 115 kts 201°
2026-04-16 11:26 -34.83085 150.64616 592 ft 115 kts 203°
2026-04-16 11:26 -34.83839 150.64333 764 ft 113 kts 201°
2026-04-16 11:26 -34.84622 150.64064 862 ft 117 kts 200°
2026-04-16 11:26 -34.85367 150.63711 937 ft 115 kts 215°
2026-04-16 11:27 -34.85954 150.63097 1078 ft 104 kts 232°
2026-04-16 11:27 -34.86402 150.62456 1258 ft 98 kts 235°
2026-04-16 11:27 -34.86825 150.61798 1362 ft 101 kts 234°
2026-04-16 11:27 -34.87282 150.61118 1393 ft 107 kts 233°
2026-04-16 11:28 -34.87807 150.60422 1403 ft 114 kts 226°
2026-04-16 11:28 -34.88434 150.59786 1428 ft 116 kts 218°
2026-04-16 11:28 -34.89206 150.59413 1465 ft 125 kts 196°
2026-04-16 11:28 -34.90079 150.59262 1473 ft 131 kts 187°
2026-04-16 11:29 -34.91025 150.59195 1430 ft 137 kts 186°
2026-04-16 11:29 -34.91995 150.59117 1353 ft 142 kts 186°
2026-04-16 11:29 -34.92972 150.59036 1351 ft 140 kts 187°
2026-04-16 11:29 -34.93919 150.58887 1409 ft 133 kts 192°
2026-04-16 11:30 -34.94832 150.58638 1332 ft 132 kts 205°
2026-04-16 11:30 -34.95290 150.57899 1257 ft 105 kts 279°
2026-04-16 11:30 -34.95111 150.57068 1163 ft 97 kts 277°
2026-04-16 11:30 -34.95028 150.56296 878 ft 87 kts 271°
2026-04-16 11:31 -34.94992 150.55620 697 ft 73 kts 279°
2026-04-16 11:31 -34.94945 150.55039 471 ft 59 kts 277°
2026-04-16 11:31 -34.94921 150.54701 379 ft 18 kts 279°
2026-04-16 11:31 -34.94902 150.54506 398 ft 40 kts 286°
2026-04-16 11:32 -34.94858 150.54019 493 ft 68 kts 282°
2026-04-16 11:32 -34.94820 150.53404 676 ft 74 kts 279°
2026-04-16 11:32 -34.94765 150.52731 806 ft 83 kts 278°
2026-04-16 11:32 -34.94711 150.52006 891 ft 90 kts 276°
2026-04-16 11:33 -34.94696 150.51231 1019 ft 91 kts 265°
2026-04-16 11:33 -34.95159 150.50655 1040 ft 116 kts 195°
2026-04-16 11:33 -34.95905 150.51062 977 ft 129 kts 116°
2026-04-16 11:33 -34.96198 150.52097 920 ft 130 kts 94°
2026-04-16 11:34 -34.96344 150.53180 907 ft 126 kts 84°
2026-04-16 11:34 -34.96369 150.54231 890 ft 123 kts 79°
2026-04-16 11:34 -34.96333 150.55272 834 ft 121 kts 74°
2026-04-16 11:34 -34.96254 150.56245 906 ft 112 kts 74°
2026-04-16 11:35 -34.95906 150.56952 972 ft 96 kts 15°
2026-04-16 11:35 -34.95292 150.56751 940 ft 100 kts 309°
2026-04-16 11:35 -34.95023 150.55966 729 ft 99 kts 279°
2026-04-16 11:35 -34.94956 150.55191 546 ft 85 kts 277°
2026-04-16 11:36 -34.94915 150.54533 416 ft 67 kts 280°
2026-04-16 11:36 -34.94881 150.54095 379 ft 35 kts 278°
2026-04-16 11:36 -34.94867 150.53931 369 ft 10 kts 279°
2026-04-16 11:36 -34.94839 150.53673 461 ft 64 kts 281°
2026-04-16 11:37 -34.94798 150.52965 601 ft 97 kts 280°
2026-04-16 11:37 -34.94734 150.52118 844 ft 104 kts 272°
2026-04-16 11:37 -34.95195 150.51495 1019 ft 122 kts 182°
2026-04-16 11:37 -34.95749 150.52217 951 ft 133 kts 95°
2026-04-16 11:38 -34.95961 150.53348 867 ft 139 kts 94°
2026-04-16 11:38 -34.96134 150.54504 816 ft 139 kts 89°
2026-04-16 11:38 -34.96244 150.55658 767 ft 135 kts 84°
2026-04-16 11:38 -34.96073 150.56651 934 ft 107 kts 38°
2026-04-16 11:39 -34.95444 150.56749 924 ft 95 kts 321°
2026-04-16 11:39 -34.95068 150.56029 729 ft 108 kts 283°
2026-04-16 11:39 -34.94962 150.55160 724 ft 97 kts 276°
2026-04-16 11:39 -34.94909 150.54388 776 ft 86 kts 275°
2026-04-16 11:40 -34.94864 150.53651 743 ft 84 kts 276°
2026-04-16 11:40 -34.94822 150.52962 728 ft 84 kts 279°
2026-04-16 11:40 -34.94799 150.52266 772 ft 73 kts 276°
2026-04-16 11:40 -34.94962 150.51733 935 ft 76 kts 230°
2026-04-16 11:41 -34.95546 150.51656 959 ft 101 kts 158°
2026-04-16 11:41 -34.96106 150.52292 890 ft 118 kts 114°
2026-04-16 11:41 -34.96417 150.53245 874 ft 122 kts 96°
2026-04-16 11:41 -34.96590 150.54263 872 ft 122 kts 87°
2026-04-16 11:42 -34.96677 150.55290 868 ft 122 kts 83°
2026-04-16 11:42 -34.96727 150.56308 876 ft 117 kts 70°
2026-04-16 11:42 -34.96268 150.56918 901 ft 98 kts
2026-04-16 11:42 -34.95646 150.56621 833 ft 103 kts 317°
2026-04-16 11:43 -34.95160 150.55936 680 ft 109 kts 296°
2026-04-16 11:43 -34.94953 150.55083 509 ft 100 kts 277°
2026-04-16 11:43 -34.94911 150.54391 412 ft 62 kts 278°
2026-04-16 11:43 -34.94879 150.54038 379 ft 19 kts 273°
2026-04-16 11:44 -34.94871 150.53995 368 ft 3 kts 277°
2026-04-16 11:44 -34.94839 150.53665 412 ft 76 kts 277°
2026-04-16 11:44 -34.94792 150.52936 699 ft 92 kts 278°
2026-04-16 11:44 -34.94729 150.52132 957 ft 103 kts 272°
2026-04-16 11:45 -34.95102 150.51388 1157 ft 123 kts 202°
2026-04-16 11:45 -34.95919 150.51886 1053 ft 158 kts 113°
2026-04-16 11:45 -34.96201 150.53191 1014 ft 162 kts 95°
2026-04-16 11:45 -34.96401 150.54541 913 ft 157 kts 89°
2026-04-16 11:46 -34.96496 150.55774 882 ft 142 kts 83°
2026-04-16 11:46 -34.96413 150.56868 1000 ft 110 kts 52°
2026-04-16 11:46 -34.95824 150.57246 1078 ft 101 kts 347°
2026-04-16 11:46 -34.95226 150.56772 984 ft 109 kts 304°
2026-04-16 11:47 -34.94925 150.55911 836 ft 114 kts 281°
2026-04-16 11:47 -34.94847 150.54959 689 ft 110 kts 275°
2026-04-16 11:47 -34.94801 150.54112 531 ft 86 kts 271°
2026-04-16 11:47 -34.94775 150.53551 396 ft 36 kts 277°
2026-04-16 11:48 -34.94754 150.53459 365 ft 8 kts 280°
2026-04-16 11:48 -34.94745 150.53403 366 ft 4 kts 296°
2026-04-16 11:48 -34.94711 150.53395 365 ft 6 kts
2026-04-16 11:48 -34.94663 150.53398 363 ft 6 kts
2026-04-16 11:49 -34.94625 150.53401 361 ft 4 kts
2026-04-16 11:49 -34.94602 150.53406 360 ft 1 kts
2026-04-16 11:49 -34.94584 150.53409 360 ft 4 kts 12°
2026-04-16 11:49 -34.94554 150.53424 359 ft 3 kts 38°
2026-04-16 11:50 -34.94534 150.53448 358 ft 2 kts 45°
2026-04-16 11:50 -34.94519 150.53467 357 ft 3 kts 47°
2026-04-16 11:50 -34.94500 150.53493 356 ft 4 kts 45°
2026-04-16 11:50 -34.94490 150.53499 356 ft 0 kts 334°
2026-04-16 11:51 -34.94480 150.53491 355 ft 1 kts 330°
2026-04-16 11:51 -34.94466 150.53494 355 ft 2 kts 46°
2026-04-16 11:51 -34.94453 150.53513 355 ft 1 kts 42°
2026-04-16 11:51 -34.94452 150.53514 355 ft 0 kts 45°